Weather History for Viroqua, WI

Change the Weather History Date:

Sunday, October 20, 2013

  Actual Average (KLSE) Record (KLSE)
Temperature  
Mean Temperature 39 °F 49 °F  
Max Temperature 48 °F 58 °F 84 °F (1872)
Min Temperature 30 °F 39 °F 19 °F (1952)
Degree Days  
Heating Degree Days 26 16  
Month to date heating degree days 262  
Since 1 July heating degree days 422  
Cooling Degree Days 0 0  
Month to date cooling degree days 7  
Year to date cooling degree days 781  
Moisture  
Dew Point 36 °F    
Average Humidity 90    
Maximum Humidity 100    
Minimum Humidity 71    
Precipitation  
Precipitation 0.00 in 0.06 in 1.10 in (1979)
Month to date precipitation 1.48  
Year to date precipitation 29.00  
Snow  
Snow 0.00 in 0.10 in 0.20 in (1982)
Month to date snowfall 0.1  
Since 1 July snowfall 0.1  
Since 1 September snowfall 0.1  
Snow Depth -    
Sea Level Pressure  
Sea Level Pressure 29.74 in    
Wind  
Wind Speed 7 mph (SSW)    
Max Wind Speed 17 mph    
Max Gust Speed 25 mph    
Visibility 10 miles    
Events      
T = Trace of Precipitation, MM = Missing Value Source: NWS Daily Summary

Daily Weather History Graph

Daily Weather History Graph

Search for Another Location

Airport:

Trip Planner

Search our weather history database for the weather conditions in past years. The results will help you decide how hot, cold, wet, or windy it might be!

Date:

Astronomy

Oct. 20, 2013 Rise Set
Actual Time 7:24 AM CDT 6:11 PM CDT
Civil Twilight 6:55 AM CDT 6:40 PM CDT
Nautical Twilight 6:21 AM CDT 7:14 PM CDT
Astronomical Twilight 5:48 AM CDT 7:47 PM CDT
Moon 7:16 PM CDT (10/20) 9:05 AM CDT (10/20)
Length of Visible Light 11h 45m
Length of Day
10h 47m
Full, 97% of the Moon is Illuminated
Oct 20
Full
Oct 26
Last Quarter
Nov 3
New
Nov 9
First Quarter
Nov 17
Full

Hourly Weather History & Observations

Time (CDT) Temp. Windchill Dew Point Humidity Pressure Visibility Wind Dir Wind Speed Gust Speed Precip Events Conditions
12:15 AM 35.4 °F 30.5 °F 35.4 °F 100% 29.79 in 10.0 mi West 5.8 mph - N/A   Mostly Cloudy
12:35 AM 34.7 °F 30.6 °F 34.7 °F 100% 29.79 in 10.0 mi WNW 4.6 mph - N/A   Clear
12:55 AM 34.3 °F 30.2 °F 34.3 °F 100% 29.78 in 10.0 mi West 4.6 mph - N/A   Clear
1:15 AM 33.8 °F 29.6 °F 33.8 °F 100% 29.79 in 10.0 mi West 4.6 mph - N/A   Clear
1:35 AM 33.8 °F 29.6 °F 33.8 °F 100% 29.79 in 10.0 mi West 4.6 mph - N/A   Clear
1:55 AM 33.4 °F 30.4 °F 33.4 °F 100% 29.79 in 10.0 mi WNW 3.5 mph - N/A   Clear
2:15 AM 33.3 °F 30.2 °F 33.3 °F 100% 29.79 in 10.0 mi West 3.5 mph - N/A   Clear
2:35 AM 32.5 °F 28.1 °F 32.5 °F 100% 29.79 in 10.0 mi WSW 4.6 mph - N/A   Clear
2:55 AM 32.0 °F 27.5 °F 32.0 °F 100% 29.79 in 10.0 mi WSW 4.6 mph - N/A   Clear
3:15 AM 32.0 °F 28.7 °F 32.0 °F 100% 29.79 in 10.0 mi SW 3.5 mph - N/A   Clear
3:35 AM 31.8 °F 27.3 °F 31.8 °F 100% 29.79 in 10.0 mi SW 4.6 mph - N/A   Clear
3:55 AM 31.5 °F 26.8 °F 31.5 °F 100% 29.79 in 10.0 mi SSW 4.6 mph - N/A   Clear
4:15 AM 30.7 °F 26.0 °F 30.7 °F 100% 29.79 in 10.0 mi SW 4.6 mph - N/A   Clear
4:35 AM 30.9 °F 27.5 °F 30.9 °F 100% 29.78 in 10.0 mi SSW 3.5 mph - N/A   Clear
4:55 AM 30.9 °F - 30.9 °F 100% 29.78 in 10.0 mi Calm Calm - N/A   Clear
5:15 AM 30.9 °F 26.2 °F 30.9 °F 100% 29.79 in 10.0 mi SSW 4.6 mph - N/A   Clear
5:35 AM 30.0 °F 26.5 °F 30.0 °F 100% 29.79 in 10.0 mi South 3.5 mph - N/A   Clear
5:55 AM 30.4 °F 24.5 °F 30.4 °F 100% 29.79 in 10.0 mi SSW 5.8 mph - N/A   Clear
6:15 AM 30.4 °F 24.5 °F 30.4 °F 100% 29.79 in 10.0 mi SSW 5.8 mph - N/A   Scattered Clouds
6:35 AM 31.1 °F - 31.1 °F 100% 29.79 in 10.0 mi Calm Calm - N/A   Mostly Cloudy
6:55 AM 31.8 °F - 31.8 °F 100% 29.79 in 10.0 mi Calm Calm - N/A   Overcast
7:15 AM 32.0 °F 27.5 °F 32.0 °F 100% 29.79 in 10.0 mi SSW 4.6 mph - N/A   Overcast
7:35 AM 32.4 °F 29.1 °F 32.4 °F 100% 29.79 in 10.0 mi SSW 3.5 mph - N/A   Overcast
7:55 AM 32.4 °F - 32.4 °F 100% 29.79 in 10.0 mi Calm Calm - N/A   Overcast
8:15 AM 32.9 °F - 32.9 °F 100% 29.79 in 10.0 mi Calm Calm - N/A   Overcast
8:35 AM 33.4 °F 29.1 °F 33.4 °F 100% 29.79 in 10.0 mi ESE 4.6 mph - N/A   Overcast
8:55 AM 34.2 °F 29.0 °F 34.2 °F 100% 29.79 in 10.0 mi ESE 5.8 mph - N/A   Overcast
9:15 AM 35.2 °F 28.8 °F 35.2 °F 100% 29.78 in 10.0 mi SE 8.1 mph - N/A   Overcast
9:35 AM 35.6 °F 29.2 °F 35.6 °F 100% 29.77 in 10.0 mi ESE 8.1 mph - N/A   Overcast
9:55 AM 35.8 °F 28.8 °F 35.8 °F 100% 29.77 in 10.0 mi ESE 9.2 mph - N/A   Overcast
10:15 AM 36.0 °F 29.6 °F 36.0 °F 100% 29.77 in 10.0 mi SE 8.1 mph - N/A   Overcast
10:35 AM 37.9 °F 30.9 °F 37.6 °F 99% 29.76 in 10.0 mi SE 10.4 mph - N/A   Overcast
10:55 AM 38.3 °F 30.9 °F 37.4 °F 97% 29.76 in 10.0 mi SE 11.5 mph - N/A   Overcast
11:15 AM 38.7 °F 32.9 °F 37.9 °F 97% 29.75 in 10.0 mi SE 8.1 mph - N/A   Overcast
11:35 AM 38.7 °F 32.9 °F 38.3 °F 99% 29.75 in 10.0 mi SE 8.1 mph - N/A   Overcast
11:55 AM 39.2 °F 33.6 °F 38.5 °F 97% 29.74 in 7.0 mi ESE 8.1 mph - N/A   Overcast
12:15 PM 39.9 °F 32.9 °F 39.0 °F 97% 29.72 in 10.0 mi ESE 11.5 mph - N/A   Overcast
12:35 PM 40.8 °F 33.3 °F 39.4 °F 95% 29.71 in 10.0 mi SE 13.8 mph 17.3 mph N/A   Mostly Cloudy
12:55 PM 41.4 °F 34.7 °F 38.7 °F 90% 29.69 in 10.0 mi ESE 11.5 mph - N/A   Mostly Cloudy
1:15 PM 42.3 °F 36.8 °F 38.1 °F 85% 29.68 in 10.0 mi SE 9.2 mph - N/A   Overcast
1:35 PM 43.0 °F 39.5 °F 37.4 °F 81% 29.67 in 10.0 mi SE 5.8 mph - N/A   Overcast
1:55 PM 43.9 °F 37.9 °F 37.6 °F 78% 29.68 in 10.0 mi SSE 11.5 mph - N/A   Overcast
2:15 PM 44.1 °F 39.0 °F 37.6 °F 78% 29.68 in 10.0 mi South 9.2 mph - N/A   Overcast
2:35 PM 45.5 °F 40.3 °F 37.0 °F 72% 29.66 in 10.0 mi South 10.4 mph - N/A   Overcast
2:55 PM 45.5 °F 40.8 °F 37.0 °F 72% 29.66 in 10.0 mi SSE 9.2 mph - N/A   Mostly Cloudy
3:15 PM 45.9 °F 40.8 °F 37.0 °F 71% 29.65 in 10.0 mi South 10.4 mph - N/A   Overcast
3:35 PM 46.4 °F 42.4 °F 37.6 °F 71% 29.66 in 10.0 mi South 8.1 mph - N/A   Overcast
3:55 PM 46.6 °F - 38.3 °F 73% 29.66 in 10.0 mi SSW 11.5 mph 16.1 mph N/A   Overcast
4:15 PM 46.4 °F 41.9 °F 38.5 °F 74% 29.66 in 10.0 mi South 9.2 mph - N/A   Overcast
4:35 PM 46.4 °F 41.1 °F 38.7 °F 74% 29.67 in 10.0 mi SSW 11.5 mph - N/A   Overcast
4:55 PM 46.8 °F - 39.9 °F 77% 29.67 in 10.0 mi SW 9.2 mph - N/A   Overcast
5:15 PM 48.2 °F - 39.9 °F 73% 29.68 in 10.0 mi SSW 12.7 mph 16.1 mph N/A   Scattered Clouds
5:35 PM 46.9 °F - 40.1 °F 77% 29.67 in 10.0 mi SSW 5.8 mph - N/A   Scattered Clouds
5:55 PM 45.7 °F 42.0 °F 40.1 °F 81% 29.67 in 10.0 mi SSW 6.9 mph - N/A   Scattered Clouds
6:15 PM 45.9 °F 43.6 °F 40.3 °F 81% 29.67 in 10.0 mi South 4.6 mph - N/A   Mostly Cloudy
6:35 PM 45.9 °F 42.9 °F 41.0 °F 83% 29.68 in 10.0 mi SSW 5.8 mph - N/A   Overcast
6:55 PM 45.1 °F 41.4 °F 42.1 °F 89% 29.68 in 10.0 mi SSW 6.9 mph - N/A   Overcast
7:15 PM 45.5 °F 41.3 °F 42.3 °F 88% 29.68 in 10.0 mi SSW 8.1 mph - N/A   Overcast
7:35 PM 45.7 °F 41.5 °F 42.4 °F 88% 29.68 in 10.0 mi SSW 8.1 mph - N/A   Overcast
7:55 PM 45.9 °F 40.0 °F 42.3 °F 87% 29.69 in 10.0 mi WSW 12.7 mph 17.3 mph N/A   Overcast
8:15 PM 47.3 °F - 41.7 °F 81% 29.69 in 10.0 mi WSW 15.0 mph - N/A   Overcast
8:35 PM 47.5 °F - 41.0 °F 78% 29.70 in 10.0 mi West 12.7 mph 19.6 mph N/A   Overcast
8:55 PM 47.7 °F - 41.0 °F 78% 29.71 in 10.0 mi West 12.7 mph 20.7 mph N/A   Overcast
9:15 PM 47.3 °F - 40.1 °F 76% 29.71 in 10.0 mi West 15.0 mph 25.3 mph N/A   Overcast
9:35 PM 46.4 °F 40.7 °F 39.6 °F 77% 29.72 in 10.0 mi WNW 12.7 mph 25.3 mph N/A   Overcast
9:55 PM 45.5 °F 39.9 °F 38.7 °F 77% 29.73 in 10.0 mi West 11.5 mph - N/A   Overcast
10:15 PM 44.6 °F 38.8 °F 38.5 °F 79% 29.74 in 10.0 mi West 11.5 mph 18.4 mph N/A   Overcast
10:35 PM 44.1 °F 37.4 °F 38.5 °F 81% 29.75 in 10.0 mi WNW 13.8 mph 23.0 mph N/A   Overcast
10:55 PM 42.6 °F 34.9 °F 37.6 °F 82% 29.76 in 10.0 mi WNW 16.1 mph 25.3 mph N/A   Overcast
11:15 PM 41.0 °F 32.5 °F 35.2 °F 80% 29.78 in 10.0 mi WNW 17.3 mph 25.3 mph N/A   Overcast
11:35 PM 39.2 °F 30.2 °F 33.3 °F 79% 29.79 in 10.0 mi WNW 17.3 mph 21.9 mph N/A   Overcast
11:55 PM 38.5 °F 29.9 °F 32.4 °F 79% 29.80 in 10.0 mi WNW 15.0 mph 23.0 mph N/A   Overcast